Weather Service Report


902 
ASUS46 KSTO 201109
RWRCA 

NORTHERN AND CENTRAL CA REGIONAL WEATHER ROUNDUP
NATIONAL WEATHER SERVICE SACRAMENTO CA 
400 AM PDT SUN APR 20 2014

NOTE: FAIR INDICATES FEW OR NO CLOUDS BELOW 12,000 FEET WITH NO
SIGNIFICANT WEATHER AND/OR OBSTRUCTIONS TO VISIBILITY.

CAZ001-003-201200-
NORTHWEST AREA
  
CITY           SKY/WX    TMP DP  RH WIND       PRES   REMARKS
CRESCENT CITY  CLEAR     44  43  96 E7        30.26F                  
ARCATA         NOT AVBL                                               
SHELTER COVE   NOT AVBL                                               
UKIAH          CLEAR     46  42  86 CALM      30.17R                  
$$

CAZ006-505>513-201200-
BAY AREA
  
CITY           SKY/WX    TMP DP  RH WIND       PRES   REMARKS
SANTA ROSA     CLEAR     47  46  97 CALM      30.11R FOG              
SAN RAFAEL     N/A       53  MM  MM MISG
NAPA           FOG       44  43  96 CALM      30.12R VSB 1/4          
CONCORD        CLEAR     53  50  89 S7        30.12R                  
OAKLAND CITY   N/A       55  MM  MM MISG
OAKLAND        PTCLDY    53  48  83 CALM      30.13S                  
SAN FRAN CITY  N/A       51  MM  92 MISG
SAN FRAN ARPT  CLEAR     52  49  89 W6        30.12S                  
LIVERMORE      CLOUDY    52  49  89 CALM      30.12R                  
HAYWARD        CLOUDY    52  50  93 E3        30.12S                  
REDWOOD CITY   N/A       MM  MM  MM MISG
MOFFETT ARPT   CLEAR     52  47  83 CALM      30.13S                  
SAN JOSE ARPT  CLEAR     52  48  86 CALM      30.13R                  
$$
CAZ034-037-514>518-201200-
CENTRAL COAST
  
CITY           SKY/WX    TMP DP  RH WIND       PRES   REMARKS
WATSONVILLE    FOG       51  49  92 CALM      30.13S VSB 1/4          
SALINAS        CLOUDY    53  51  93 NW3       30.12F                  
MONTEREY       CLOUDY    53  48  83 SW5       30.13S                  
PT PIEDRAS BLS NOT AVBL                                               
SAN LUIS OBISP FOG       50  48  93 CALM      30.07S VSB 1/4          
SANTA MARIA    FOG       52  50  93 CALM      30.07S VSB 1/4          
$$
CAZ015-016-201200-
NORTHERN SACRAMENTO VALLEY
  
CITY           SKY/WX    TMP DP  RH WIND       PRES   REMARKS
REDDING        CLEAR     50  44  80 NE5       30.13S                  
RED BLUFF      CLEAR     52  39  61 N7        30.13S                  
OROVILLE       CLEAR     54  44  69 CALM      30.12S                  
$$
CAZ016>018-201200-
SOUTHERN SACRAMENTO VALLEY
  
CITY           SKY/WX    TMP DP  RH WIND       PRES   REMARKS
AUBURN         CLEAR     54  32  43 E3        30.10F                  
BEALE AFB      CLEAR     49  44  84 CALM      30.10S                  
LINCOLN        FAIR      45  43  93 CALM      30.10S                  
MARYSVILLE     CLEAR     49  48  97 CALM      30.11R                  
SAC INTL ARPT  CLEAR     47  46  97 N5        30.10S                  
MATHER AIRPORT NOT AVBL                                               
DOWNTOWN SAC   N/A       54  MM  MM MISG
SAC EXEC ARPT  CLEAR     52  50  93 CALM      30.10S                  
VACAVILLE      CLEAR     51  48  89 CALM      30.11R                  
TRAVIS AFB     CLEAR     51  51 100 NW2       30.09S                  
$$
CAZ019>021-201200-
SAN JOAQUIN VALLEY
  
CITY           SKY/WX    TMP DP  RH WIND       PRES   REMARKS
STOCKTON       CLEAR     50  48  93 CALM      30.09S                  
MODESTO        PTCLDY    55  49  80 NW7       30.08S                  
MERCED         CLEAR     52  47  83 NW5       30.07S                  
LEMOORE        CLEAR    N/A N/A N/A N6        30.07S                  
FRESNO         CLEAR     57  49  74 NW8       30.07S                  
HANFORD        CLEAR     57  47  69 NW9       30.07S                  
PORTERVILLE    CLEAR     48  41  76 SE7       30.09R                  
BAKERSFIELD    CLEAR     57  38  48 CALM      30.09S                  
$$
CAZ011-012-071-201200-
NORTHERN MOUNTAINS
  
CITY           SKY/WX    TMP DP  RH WIND       PRES   REMARKS
YREKA          CLEAR     33  30  88 NE6       30.27R WCI  28          
MOUNT SHASTA   CLEAR     40  31  70 CALM      30.23R                  
ALTURAS        MOCLDY    31  26  82 CALM      30.25R                  
$$
CAZ011-012-071-201200-
SIERRA NEVADA MTNS
  
CITY           SKY/WX    TMP DP  RH WIND       PRES   REMARKS
BLUE CANYON    PTCLDY    50  -2  11 NE5       30.20F                  
TRUCKEE        PTCLDY    25  19  80 CALM      30.25S                  
TAHOE VLY ARPT PTCLDY    30  20  66 CALM      30.23S                  
MAMMOTH LAKES  FAIR      27  19  74 CALM      30.24R                  
$$
  

Return to Home page


Western Regional Climate Center, wrcc@dri.edu